Time,TemperatureF,DewpointF,PressureIn,WindDirection,WindDirectionDegrees,WindSpeedMPH,WindSpeedGustMPH,Humidity,HourlyPrecipIn,Conditions,Clouds,dailyrainin,SoftwareType,DateUTC
2013-04-19 00:21:00,47.0,12.0,30.16,North,0,0.0,13.0,24,0.00,,,-99.99,,2013-04-19 07:21:00,
2013-04-19 00:32:00,47.0,12.0,30.16,North,0,0.0,13.0,24,0.00,,,-99.99,,2013-04-19 07:32:00,
2013-04-19 00:42:00,47.0,12.0,30.16,North,0,0.0,13.0,24,0.00,,,-99.99,,2013-04-19 07:42:00,
2013-04-19 00:52:00,47.0,12.0,30.16,North,0,0.0,13.0,24,0.00,,,-99.99,,2013-04-19 07:52:00,
2013-04-19 01:21:00,42.0,10.0,30.15,North,0,0.0,13.0,26,0.00,,,-99.99,,2013-04-19 08:21:00,
2013-04-19 01:32:00,42.0,10.0,30.15,North,0,0.0,13.0,26,0.00,,,-99.99,,2013-04-19 08:32:00,
2013-04-19 01:42:00,42.0,10.0,30.15,North,0,0.0,13.0,26,0.00,,,-99.99,,2013-04-19 08:42:00,
2013-04-19 01:52:00,42.0,10.0,30.15,North,0,0.0,13.0,26,0.00,,,-99.99,,2013-04-19 08:52:00,
2013-04-19 02:21:00,40.0,10.0,30.14,North,0,0.0,13.0,28,0.00,,,-99.99,,2013-04-19 09:21:00,
2013-04-19 02:32:00,40.0,10.0,30.14,North,0,0.0,13.0,28,0.00,,,-99.99,,2013-04-19 09:32:00,
2013-04-19 02:42:00,40.0,10.0,30.14,North,0,0.0,13.0,28,0.00,,,-99.99,,2013-04-19 09:42:00,
2013-04-19 02:52:00,40.0,10.0,30.14,North,0,0.0,13.0,28,0.00,,,-99.99,,2013-04-19 09:52:00,
2013-04-19 03:23:00,39.0,10.0,30.13,North,0,0.0,13.0,30,0.00,,,-99.99,,2013-04-19 10:23:00,
2013-04-19 03:33:00,39.0,10.0,30.13,North,0,0.0,13.0,30,0.00,,,-99.99,,2013-04-19 10:33:00,
2013-04-19 03:42:00,39.0,10.0,30.13,North,0,0.0,13.0,30,0.00,,,-99.99,,2013-04-19 10:42:00,
2013-04-19 03:52:00,39.0,10.0,30.13,North,0,0.0,13.0,30,0.00,,,-99.99,,2013-04-19 10:52:00,
2013-04-19 04:22:00,40.0,10.0,30.13,North,0,0.0,13.0,28,0.00,,,-99.99,,2013-04-19 11:22:00,
2013-04-19 04:32:00,40.0,10.0,30.13,North,0,0.0,13.0,28,0.00,,,-99.99,,2013-04-19 11:32:00,
2013-04-19 04:42:00,40.0,10.0,30.13,North,0,0.0,13.0,28,0.00,,,-99.99,,2013-04-19 11:42:00,
2013-04-19 04:52:00,40.0,10.0,30.13,North,0,0.0,13.0,28,0.00,,,-99.99,,2013-04-19 11:52:00,
2013-04-19 05:22:00,39.0,11.0,30.14,North,0,0.0,13.0,31,0.00,,,-99.99,,2013-04-19 12:22:00,
2013-04-19 05:32:00,39.0,11.0,30.14,North,0,0.0,13.0,31,0.00,,,-99.99,,2013-04-19 12:32:00,
2013-04-19 06:21:00,38.0,10.0,30.15,North,0,0.0,13.0,31,0.00,,,-99.99,,2013-04-19 13:21:00,
2013-04-19 06:32:00,38.0,10.0,30.15,North,0,0.0,13.0,31,0.00,,,-99.99,,2013-04-19 13:32:00,
2013-04-19 06:42:00,38.0,10.0,30.15,North,0,0.0,13.0,31,0.00,,,-99.99,,2013-04-19 13:42:00,
2013-04-19 06:52:00,38.0,10.0,30.15,North,0,0.0,13.0,31,0.00,,,-99.99,,2013-04-19 13:52:00,
2013-04-19 07:21:00,39.0,12.0,30.15,North,0,0.0,13.0,32,0.00,,,-99.99,,2013-04-19 14:21:00,
2013-04-19 07:32:00,39.0,12.0,30.15,North,0,0.0,13.0,32,0.00,,,-99.99,,2013-04-19 14:32:00,
2013-04-19 07:42:00,39.0,12.0,30.15,North,0,0.0,13.0,32,0.00,,,-99.99,,2013-04-19 14:42:00,
2013-04-19 07:52:00,39.0,12.0,30.15,North,0,0.0,13.0,32,0.00,,,-99.99,,2013-04-19 14:52:00,
2013-04-19 08:21:00,40.0,18.0,30.17,South,170,1.0,13.0,40,0.00,,,-99.99,,2013-04-19 15:21:00,
2013-04-19 08:33:00,40.0,18.0,30.17,South,170,1.0,13.0,40,0.00,,,-99.99,,2013-04-19 15:33:00,
2013-04-19 09:23:00,49.0,15.0,30.17,North,0,0.0,13.0,25,0.00,,,-99.99,,2013-04-19 16:23:00,
2013-04-19 09:32:00,49.0,15.0,30.17,North,0,0.0,13.0,25,0.00,,,-99.99,,2013-04-19 16:32:00,
2013-04-19 09:42:00,49.0,15.0,30.17,North,0,0.0,13.0,25,0.00,,,-99.99,,2013-04-19 16:42:00,
2013-04-19 09:52:00,49.0,15.0,30.17,North,0,0.0,13.0,25,0.00,,,-99.99,,2013-04-19 16:52:00,
2013-04-19 10:21:00,53.0,16.0,30.17,WNW,290,2.0,13.0,23,0.00,,,-99.99,,2013-04-19 17:21:00,
2013-04-19 10:33:00,53.0,16.0,30.17,WNW,290,2.0,13.0,23,0.00,,,-99.99,,2013-04-19 17:33:00,
2013-04-19 10:42:00,53.0,16.0,30.17,WNW,290,2.0,13.0,23,0.00,,,-99.99,,2013-04-19 17:42:00,
2013-04-19 10:52:00,53.0,16.0,30.17,WNW,290,2.0,13.0,23,0.00,,,-99.99,,2013-04-19 17:52:00,
2013-04-19 11:22:00,55.0,18.0,30.16,South,190,2.0,13.0,23,0.00,,,-99.99,,2013-04-19 18:22:00,
2013-04-19 11:33:00,55.0,18.0,30.16,South,190,2.0,13.0,23,0.00,,,-99.99,,2013-04-19 18:33:00,
2013-04-19 11:42:00,55.0,18.0,30.16,South,190,2.0,13.0,23,0.00,,,-99.99,,2013-04-19 18:42:00,
2013-04-19 11:52:00,55.0,18.0,30.16,South,190,2.0,13.0,23,0.00,,,-99.99,,2013-04-19 18:52:00,
2013-04-19 12:21:00,59.0,19.0,30.14,SW,230,2.0,13.0,21,0.00,,,-99.99,,2013-04-19 19:21:00,
2013-04-19 12:32:00,59.0,19.0,30.14,SW,230,2.0,13.0,21,0.00,,,-99.99,,2013-04-19 19:32:00,
2013-04-19 13:22:00,63.0,22.0,30.11,West,260,1.0,13.0,21,0.00,,,-99.99,,2013-04-19 20:22:00,
2013-04-19 13:32:00,63.0,22.0,30.11,West,260,1.0,13.0,21,0.00,,,-99.99,,2013-04-19 20:32:00,
2013-04-19 14:21:00,65.0,23.0,30.79,West,260,1.0,13.0,20,0.00,,,-99.99,,2013-04-19 21:21:00,
2013-04-19 14:32:00,65.0,23.0,30.79,West,260,1.0,13.0,20,0.00,,,-99.99,,2013-04-19 21:32:00,
2013-04-19 15:22:00,64.0,22.0,30.59,NW,310,1.0,13.0,20,0.00,,,-99.99,,2013-04-19 22:22:00,
2013-04-19 15:33:00,64.0,22.0,30.59,NW,310,1.0,13.0,20,0.00,,,-99.99,,2013-04-19 22:33:00,
2013-04-19 16:22:00,64.0,23.0,30.19,West,270,1.0,13.0,21,0.00,,,-99.99,,2013-04-19 23:22:00,
2013-04-19 16:32:00,64.0,23.0,30.19,West,270,1.0,13.0,21,0.00,,,-99.99,,2013-04-19 23:32:00,
2013-04-19 17:21:00,64.0,22.0,30.12,North,0,0.0,13.0,20,0.00,,,-99.99,,2013-04-20 00:21:00,
2013-04-19 17:32:00,64.0,22.0,30.12,North,0,0.0,13.0,20,0.00,,,-99.99,,2013-04-20 00:32:00,
2013-04-19 18:21:00,64.0,23.0,30.00,WNW,300,1.0,13.0,21,0.00,,,-99.99,,2013-04-20 01:21:00,
2013-04-19 18:32:00,64.0,23.0,30.00,WNW,300,1.0,13.0,21,0.00,,,-99.99,,2013-04-20 01:32:00,
2013-04-19 19:21:00,59.0,22.0,29.98,North,0,0.0,13.0,24,0.00,,,-99.99,,2013-04-20 02:21:00,
2013-04-19 19:32:00,59.0,22.0,29.98,North,0,0.0,13.0,24,0.00,,,-99.99,,2013-04-20 02:32:00,
2013-04-19 20:21:00,50.0,22.0,29.99,North,0,0.0,13.0,33,0.00,,,-99.99,,2013-04-20 03:21:00,
2013-04-19 20:33:00,50.0,22.0,29.99,North,0,0.0,13.0,33,0.00,,,-99.99,,2013-04-20 03:33:00,
2013-04-19 20:43:00,50.0,22.0,29.99,North,0,0.0,13.0,33,0.00,,,-99.99,,2013-04-20 03:43:00,
2013-04-19 20:52:00,50.0,22.0,29.99,North,0,0.0,13.0,33,0.00,,,-99.99,,2013-04-20 03:52:00,
2013-04-19 22:22:00,47.0,20.0,29.99,North,0,0.0,13.0,34,0.00,,,-99.99,,2013-04-20 05:22:00,
2013-04-19 22:32:00,47.0,20.0,29.99,North,0,0.0,13.0,34,0.00,,,-99.99,,2013-04-20 05:32:00,
2013-04-19 22:42:00,47.0,20.0,29.99,North,0,0.0,13.0,34,0.00,,,-99.99,,2013-04-20 05:42:00,
2013-04-19 22:51:00,47.0,20.0,29.99,North,0,0.0,13.0,34,0.00,,,-99.99,,2013-04-20 05:51:00,
2013-04-19 23:21:00,46.0,19.0,29.98,North,0,0.0,13.0,34,0.00,,,-99.99,,2013-04-20 06:21:00,
2013-04-19 23:32:00,46.0,19.0,29.98,North,0,0.0,13.0,34,0.00,,,-99.99,,2013-04-20 06:32:00,
2013-04-19 23:42:00,46.0,19.0,29.98,North,0,0.0,13.0,34,0.00,,,-99.99,,2013-04-20 06:42:00,
2013-04-19 23:52:00,46.0,19.0,29.98,North,0,0.0,13.0,34,0.00,,,-99.99,,2013-04-20 06:52:00,